STARLINK-1677, 46576

Orbit data source: Space-Track

STARLINK-1677, 46576 is a payload satellite owned by SpaceX/Seattle (US) in LEO that was launched on Tue, 06 Oct 2020 UTC via an FALCON 9 launch vehicle from the Air Force Eastern Test Range (AFETR). Payload-class satellites include a variety of spacecraft equipped with specific instruments for various scientific and technological missions. These include communications satellites like Starlink; space stations such as the ISS; scientific satellites like the Hubble; Earth observation satellites from companies like Planet Labs, Umbra, and HawkEye 360; GPS; miniature CubeSats for education and research; and military/defense satellites.

Loading next visibility...
Identifier
46576, 2020-070AW
Orbit
LEO
Country
Flag of USUS
Related business
Manufacturer
SpaceX/Seattle
Mission
Operational Commercial Communications
Bus & Motor
STARLINK, Unknown motor
Mass
260 kg wet, ~248 kg dry
Launch date (UTC)
2020-10-06 (5 years ago)
Launch vehicle
FALCON 9
Launch site
Air Force Eastern Test Range (AFETR)
Object type
Payload
Rocket body
Debris
Shape & HBR
Box + 1 Pan, 10.1 m
Radar Cross Section
13.562 m², Large (>1 m²)

Expand to show TLE details & history
Last TLE update: 7 hours ago

TLE from 7 hours ago
0 STARLINK-1677
1 46576U 20070AW  25293.00001157  .01041958  00000-0  46506-1 0  9992
2 46576  53.0539  72.9403 0001050  85.2622  18.1482 15.18334634  5693
Epoch: 2025-10-20T00:00Z
TLE epoch observation values (Epoch: 2025-10-20T00:00:00.999Z)
Latitude
51.17292°
Longitude
155.89345°
Altitude
516.269 km
Speed
7.612 km/s
True Right ascension
12h 18m 25s
True Declination
50° 59' 56"
Sunlit
Object was in daylight at epoch
Visualization orbit readout
Latitude
Unknown
Longitude
Unknown
Altitude
Unknown
Speed
Unknown
Apparent Right ascension
Unknown
Apparent Declination
Unknown
Sunlit
N/A
Visualization observer readout
Local Sidereal Time
01:30:23
Azimuth
Unknown
Elevation
Unknown
Doppler factor
Unknown
Orbital elements
Apogee altitude
511.869 km
Perigee altitude
510.422 km
Semi-major axis
6,889.283 km
Eccentricity
0.00011
Inclination
53.0539°
RAAN
72.9403°
Arg. of periapsis
85.2622°
True anomaly
18.15195°
Mean anomaly
18.1482°
Eccentric anomaly
18.15007°
Mean motion
3.79562 °/min
Orbital period
94.85 mins
BSTAR
0.046506
Loading maneuver chart data...
Computing Atmospheric mass density...
Loading historical data...
Loading historical data...
Loading historical data...
Loading historical data...
Loading historical data...
Loading historical data...
Loading historical data...

Documentation

Showing up to 5 results
|